Date String (YYYY-MM-DD hh:mm:ss) UTC,Instrument flags,Ambient pressure (hPa),Sample flow (lpm),Bypass flow (lpm),Sample temperature (°C),Ambient temperature (°C),ASC tube jacket temperature (°C),LED temperature (°C),Box temperature (°C),Sample RH (%),Span deviation,Mass concentration (μg/m³),Mass concentration (μg/m³),Mass concentration (μg/m³)
DateTimeUTC,F1_M11,P_M11,Q1_M11,Q2_M11,T1_M11,T2_M11,T3_M11,T4_M11,T5_M11,U1_M11,ZSPAN_M11,X0_M11,X2_M11,X1_M11
2023-03-10 02:00:00,,0826.5,5.00,0.00,21.7,20.4,00.0,30.4,23.3,09.5,0000.0,0009.86,0003.49,0002.49
2023-03-10 02:01:00,,0826.5,5.00,0.00,21.7,20.3,00.0,30.4,23.3,09.5,0000.0,0010.71,0003.49,0002.51
2023-03-10 02:02:00,,0826.5,4.98,0.00,21.7,20.2,00.0,30.4,23.3,09.5,0000.0,0011.19,0003.52,0002.54
2023-03-10 02:03:00,,0826.6,5.01,0.00,21.6,20.1,00.0,30.4,23.3,09.4,0000.0,0011.45,0003.53,0002.56
2023-03-10 02:04:00,,0826.5,5.00,0.00,21.6,20.0,00.0,30.4,23.3,09.4,0000.0,0012.61,0003.52,0002.58
2023-03-10 02:05:00,,0826.5,5.00,0.00,21.6,19.9,00.0,30.4,23.2,09.4,0000.0,0012.88,0003.52,0002.58
2023-03-10 02:06:00,,0826.5,5.01,0.00,21.6,19.9,00.0,30.4,23.2,09.5,0000.0,0012.96,0003.52,0002.59
2023-03-10 02:07:00,,0826.6,5.00,0.00,21.5,19.8,00.0,30.4,23.2,09.3,0000.0,0013.01,0003.52,0002.61
2023-03-10 02:08:00,,0826.7,5.01,0.00,21.5,19.7,00.0,30.4,23.1,09.4,0000.0,0014.25,0003.56,0002.62
2023-03-10 02:09:00,,0826.7,4.97,0.00,21.5,19.7,00.0,30.3,23.1,09.6,0000.0,0014.07,0003.51,0002.63
2023-03-10 02:10:00,,0826.7,5.02,0.00,21.5,19.7,00.0,30.3,23.1,10.3,0000.0,0014.11,0003.52,0002.65
2023-03-10 02:11:00,,0826.7,5.01,0.00,21.5,19.8,00.0,30.3,23.1,11.3,0000.0,0012.86,0003.53,0002.68
2023-03-10 02:12:00,,0826.7,4.99,0.00,21.5,19.8,00.0,30.3,23.2,12.3,0000.0,0011.89,0003.55,0002.76
2023-03-10 02:13:00,,0826.7,4.99,0.00,21.5,19.9,00.0,30.3,23.2,13.8,0000.0,0011.82,0003.64,0002.89
2023-03-10 02:14:00,,0826.8,5.01,0.00,21.5,19.9,00.0,30.3,23.2,14.3,0000.0,0012.34,0003.72,0003.06
2023-03-10 02:15:00,,0826.8,5.00,0.00,21.5,19.9,00.0,30.3,23.2,14.9,0000.0,0011.36,0003.87,0003.20
2023-03-10 02:16:00,,0826.7,5.00,0.00,21.5,20.0,00.0,30.3,23.2,15.2,0000.0,0011.32,0004.01,0003.33
2023-03-10 02:17:00,,0826.7,5.02,0.00,21.5,20.0,00.0,30.3,23.2,15.3,0000.0,0011.11,0004.15,0003.46
2023-03-10 02:18:00,,0826.7,4.99,0.00,21.5,20.0,00.0,30.3,23.2,15.5,0000.0,0011.50,0004.25,0003.59
2023-03-10 02:19:00,,0826.7,4.99,0.00,21.5,20.0,00.0,30.3,23.2,15.6,0000.0,0011.15,0004.36,0003.73
2023-03-10 02:20:00,,0826.7,5.00,0.00,21.5,20.0,00.0,30.3,23.2,15.7,0000.0,0011.15,0004.50,0003.87
2023-03-10 02:21:00,,0826.7,5.02,0.00,21.5,20.6,00.0,30.3,23.4,16.0,0000.0,0011.29,0004.61,0004.00
2023-03-10 02:22:00,,0826.8,4.99,0.00,21.7,21.8,00.0,30.3,23.6,16.2,0000.0,0012.06,0004.73,0004.12
2023-03-10 02:23:00,,0826.8,5.01,0.00,21.8,22.7,00.0,30.3,23.9,16.5,0000.0,0012.21,0004.83,0004.26
2023-03-10 02:24:00,,0826.7,4.98,0.00,21.9,22.4,00.0,30.4,23.9,16.6,0000.0,0011.68,0004.92,0004.36
2023-03-10 02:25:00,,0826.7,5.00,0.00,21.9,22.0,00.0,30.4,23.9,16.8,0000.0,0011.09,0005.01,0004.45
2023-03-10 02:26:00,,0826.7,4.98,0.00,22.0,21.7,00.0,30.5,23.9,16.9,-000.2,0011.07,0005.05,0004.52
2023-03-10 02:27:00,,0826.7,4.99,0.00,22.0,21.5,00.0,30.5,23.8,16.9,-001.5,0010.93,0005.09,0004.59
2023-03-10 02:28:00,,0826.7,5.01,0.00,22.0,21.2,00.0,30.5,23.8,17.0,-001.1,0011.05,0005.14,0004.65
2023-03-10 02:29:00,,0826.7,5.02,0.00,22.0,21.1,00.0,30.6,23.8,17.1,-001.2,0010.73,0005.21,0004.72
2023-03-10 02:30:00,,0826.7,5.01,0.00,22.0,21.0,00.0,30.6,23.8,17.2,-001.3,0010.13,0005.25,0004.79
2023-03-10 02:31:00,,0826.7,5.00,0.00,22.0,20.9,00.0,30.6,23.8,17.2,-000.9,0010.52,0005.31,0004.85
2023-03-10 02:32:00,,0826.7,5.00,0.00,22.0,20.8,00.0,30.6,23.7,17.2,-000.6,0010.54,0005.37,0004.90
2023-03-10 02:33:00,,0826.7,5.00,0.00,22.0,20.7,00.0,30.6,23.7,17.2,-000.2,0009.85,0005.41,0004.96
2023-03-10 02:34:00,,0826.7,5.00,0.00,22.0,20.7,00.0,30.6,23.7,17.2,-000.3,0009.73,0005.45,0005.00
2023-03-10 02:35:00,,0826.7,4.99,0.00,22.0,20.6,00.0,30.7,23.7,17.2,0000.1,0009.86,0005.50,0005.03
2023-03-10 02:36:00,,0826.7,5.01,0.00,22.0,20.6,00.0,30.7,23.7,17.3,0000.6,0009.94,0005.53,0005.06
2023-03-10 02:37:00,,0826.8,5.00,0.00,22.0,20.6,00.0,30.7,23.7,17.3,0000.6,0010.20,0005.57,0005.08
2023-03-10 02:38:00,,0826.8,5.00,0.00,22.0,20.5,00.0,30.7,23.7,17.3,0000.6,0010.41,0005.60,0005.10
2023-03-10 02:39:00,,0826.7,5.00,0.00,22.0,20.5,00.0,30.7,23.7,17.3,0000.3,0010.39,0005.61,0005.11
2023-03-10 02:40:00,,0826.8,5.00,0.00,22.0,20.5,00.0,30.7,23.7,17.3,0000.1,0010.62,0005.63,0005.13
2023-03-10 02:41:00,,0826.8,5.00,0.00,22.0,20.5,00.0,30.7,23.7,17.3,-000.0,0011.08,0005.68,0005.15
2023-03-10 02:42:00,,0827.0,5.00,0.00,22.0,20.5,00.0,30.7,23.7,17.4,-000.6,0010.83,0005.72,0005.17
2023-03-10 02:43:00,,0826.9,5.01,0.00,22.0,20.5,00.0,30.7,23.7,17.4,-000.8,0010.69,0005.70,0005.19
2023-03-10 02:44:00,,0827.0,4.99,0.00,21.9,20.5,00.0,30.7,23.6,17.4,-000.7,0010.72,0005.70,0005.19
2023-03-10 02:45:00,,0827.0,4.99,0.00,21.9,20.5,00.0,30.7,23.6,17.5,-000.7,0010.74,0005.70,0005.21
2023-03-10 02:46:00,,0826.8,5.00,0.00,21.9,20.4,00.0,30.7,23.7,17.6,-001.5,0010.59,0005.69,0005.23
2023-03-10 02:47:00,,0827.0,4.99,0.00,21.9,20.4,00.0,30.7,23.7,17.6,-002.4,0010.47,0005.67,0005.25
2023-03-10 02:48:00,,0826.9,4.99,0.00,21.9,20.4,00.0,30.7,23.6,17.6,-002.5,0010.16,0005.65,0005.28
2023-03-10 02:49:00,,0827.0,5.01,0.00,21.9,20.4,00.0,30.7,23.6,17.7,-002.1,0009.97,0005.64,0005.30
2023-03-10 02:50:00,,0826.8,5.00,0.00,21.9,20.4,00.0,30.7,23.6,17.7,-002.1,0009.77,0005.65,0005.32
2023-03-10 02:51:00,,0826.8,4.99,0.00,21.9,20.3,00.0,30.7,23.6,17.7,-001.2,0009.93,0005.68,0005.35
2023-03-10 02:52:00,,0826.8,5.00,0.00,21.9,20.3,00.0,30.7,23.6,17.7,-000.7,0009.70,0005.68,0005.38
2023-03-10 02:53:00,,0826.8,5.00,0.00,21.9,20.4,00.0,30.6,23.6,17.6,0000.1,0009.63,0005.69,0005.39
2023-03-10 02:54:00,,0827.0,5.00,0.00,22.0,21.2,00.0,30.6,23.8,17.6,0000.2,0009.65,0005.70,0005.40
2023-03-10 02:55:00,,0826.9,5.00,0.00,22.1,22.3,00.0,30.6,24.1,17.5,-000.0,0009.62,0005.70,0005.42
2023-03-10 02:56:00,,0826.9,5.00,0.00,22.2,22.6,00.0,30.7,24.2,17.4,-000.1,0009.59,0005.73,0005.43
2023-03-10 02:57:00,,0827.1,5.02,0.00,22.2,22.2,00.0,30.7,24.2,17.1,0000.5,0009.66,0005.77,0005.42
2023-03-10 02:58:00,,0826.9,4.97,0.00,22.2,21.9,00.0,30.8,24.1,17.0,0000.9,0009.77,0005.79,0005.41
2023-03-10 02:59:00,,0826.9,5.00,0.00,22.2,21.6,00.0,30.8,24.1,16.9,0000.6,0009.82,0005.80,0005.40
